Cherry Point, NC

2:19 PM EST on February 06, 2016 (GMT -0500)
Cherry Point Marine Corps Air Station

Weather History for KNKT - September, 2013

Change the Weather History Date:

Wednesday, September 4, 2013

  Actual Average Record
Temperature  
Mean Temperature 76 °F -  
Max Temperature 84 °F 81 °F 91 °F (2015)
Min Temperature 69 °F 67 °F 62 °F (1997)
Cooling Degree Days 12    
Growing Degree Days 26 (Base 50)    
Moisture  
Dew Point 71 °F    
Average Humidity 83    
Maximum Humidity 94    
Minimum Humidity 67    
Precipitation  
Precipitation 0.15 in - - ()
Sea Level Pressure  
Sea Level Pressure 30.03 in    
Wind  
Wind Speed 4 mph (East)    
Max Wind Speed 12 mph    
Max Gust Speed -    
Visibility 8 miles    
Events Rain    
Averages and records for this station are not official NWS values.
T = Trace of Precipitation, MM = Missing Value Source: NWS Daily Summary

Daily Weather History Graph

Daily Weather History Graph

Search for Another Location

Airport or City:

Trip Planner

Search our weather history database for the weather conditions in past years. The results will help you decide how hot, cold, wet, or windy it might be!

Date:

Astronomy

Sep. 04, 2013 Rise Set
Actual Time 6:42 AM EDT 7:29 PM EDT
Civil Twilight 6:16 AM EDT 7:55 PM EDT
Nautical Twilight 5:46 AM EDT 8:25 PM EDT
Astronomical Twilight 5:15 AM EDT 8:56 PM EDT
Moon 5:52 AM EDT (9/4) 6:49 PM EDT (9/4)
Length of Visible Light 13h 38m
Length of Day
12h 46m
Waning Crescent, 1% of the Moon is Illuminated
Sep 4
Waning Crescent
Sep 5
New
Sep 12
First Quarter
Sep 19
Full
Sep 26
Last Quarter

Hourly Weather History & Observations

Time (EDT) Temp. Heat Index Dew Point Humidity Pressure Visibility Wind Dir Wind Speed Gust Speed Precip Events Conditions
12:54 AM 71.1 °F - 69.1 °F 93% 29.95 in 7.0 mi Calm Calm - N/A   Mostly Cloudy
1:54 AM 70.0 °F - 68.0 °F 93% 29.96 in 6.0 mi Calm Calm - N/A   Scattered Clouds
2:54 AM 69.1 °F - 66.9 °F 93% 29.95 in 7.0 mi NNW 3.5 mph - N/A   Partly Cloudy
3:54 AM 70.0 °F - 66.9 °F 90% 29.96 in 10.0 mi North 3.5 mph - N/A   Clear
4:06 AM 70.0 °F - 68.0 °F 93% 29.97 in 10.0 mi Calm Calm - N/A   Partly Cloudy
4:54 AM 69.1 °F - 66.9 °F 93% 29.97 in 6.0 mi Calm Calm - N/A   Partly Cloudy
5:54 AM 69.1 °F - 66.9 °F 93% 29.97 in 6.0 mi Calm Calm - N/A   Scattered Clouds
6:54 AM 70.0 °F - 66.9 °F 90% 29.99 in 6.0 mi North 4.6 mph - N/A   Scattered Clouds
7:54 AM 72.0 °F - 69.1 °F 91% 30.02 in 9.0 mi NNE 3.5 mph - N/A   Partly Cloudy
8:54 AM 73.9 °F - 70.0 °F 87% 30.04 in 10.0 mi ENE 6.9 mph - N/A   Partly Cloudy
9:54 AM 77.0 °F - 70.0 °F 79% 30.05 in 10.0 mi East 6.9 mph - N/A   Scattered Clouds
10:35 AM 78.1 °F - 71.1 °F 79% 30.07 in 10.0 mi NE 11.5 mph - N/A   Mostly Cloudy
10:54 AM 79.0 °F - 71.1 °F 77% 30.07 in 10.0 mi East 8.1 mph - N/A   Mostly Cloudy
11:01 AM 79.0 °F - 71.1 °F 77% 30.08 in 10.0 mi ENE 8.1 mph - N/A   Mostly Cloudy
11:54 AM 80.1 °F 83.6 °F 71.1 °F 74% 30.08 in 10.0 mi NE 9.2 mph - N/A   Mostly Cloudy
12:44 PM 82.0 °F 86.7 °F 72.0 °F 71% 30.08 in 10.0 mi ENE 8.1 mph - N/A   Scattered Clouds
12:54 PM 82.9 °F 88.8 °F 73.0 °F 72% 30.07 in 10.0 mi Variable 6.9 mph - N/A   Scattered Clouds
1:54 PM 84.0 °F 90.2 °F 73.0 °F 69% 30.06 in 10.0 mi ENE 8.1 mph - N/A   Mostly Cloudy
2:01 PM 84.0 °F 91.2 °F 73.9 °F 72% 30.07 in 10.0 mi East 6.9 mph - N/A   Scattered Clouds
2:54 PM 84.9 °F 91.4 °F 73.0 °F 67% 30.05 in 10.0 mi NE 8.1 mph - N/A   Mostly Cloudy
3:06 PM 84.9 °F 91.4 °F 73.0 °F 67% 30.05 in 10.0 mi NE 9.2 mph - N/A   Mostly Cloudy
3:16 PM 84.9 °F 91.4 °F 73.0 °F 67% 30.05 in 10.0 mi ENE 8.1 mph - N/A   Mostly Cloudy
3:54 PM 84.9 °F 91.4 °F 73.0 °F 67% 30.04 in 10.0 mi East 4.6 mph - N/A   Mostly Cloudy
4:54 PM 82.9 °F 88.8 °F 73.0 °F 72% 30.03 in 10.0 mi ENE 8.1 mph - N/A   Mostly Cloudy
5:52 PM 78.8 °F - 73.4 °F 83% 30.04 in 2.5 mi South 4.6 mph - 0.06 in Rain Heavy Rain
5:54 PM 79.0 °F - 73.9 °F 84% 30.04 in 1.5 mi South 9.2 mph - 0.11 in Rain Heavy Rain
6:01 PM 78.1 °F - 73.9 °F 87% 30.04 in 1.0 mi SSE 5.8 mph - 0.03 in Rain Heavy Rain
6:06 PM 78.1 °F - 75.0 °F 90% 30.04 in 2.5 mi SSE 4.6 mph - 0.04 in Rain Light Rain
6:14 PM 79.0 °F - 73.9 °F 84% 30.04 in 4.0 mi SE 5.8 mph - 0.04 in Rain Light Rain
6:54 PM 78.1 °F - 75.0 °F 90% 30.03 in 6.0 mi SSE 3.5 mph - 0.04 in   Scattered Clouds
7:54 PM 75.9 °F - 73.9 °F 94% 30.04 in 7.0 mi SSE 3.5 mph - N/A   Scattered Clouds
8:54 PM 75.0 °F - 73.0 °F 94% 30.06 in 8.0 mi SSE 4.6 mph - N/A   Clear
9:54 PM 75.0 °F - 73.0 °F 94% 30.07 in 6.0 mi ESE 3.5 mph - N/A   Clear
10:54 PM 73.0 °F - 71.1 °F 93% 30.08 in 7.0 mi South 3.5 mph - N/A   Clear
11:54 PM 73.0 °F - 71.1 °F 93% 30.08 in 4.0 mi Calm Calm - N/A   Clear